Weather History for Wahoo, NE

Change the Weather History Date:

Sunday, October 7, 2012

  Actual Average Record
Temperature  
Mean Temperature 38 °F -  
Max Temperature 57 °F 69 °F 88 °F (1963)
Min Temperature 20 °F 41 °F 20 °F (2012)
Degree Days  
Heating Degree Days 26    
Moisture  
Dew Point 24 °F    
Average Humidity 57    
Maximum Humidity 93    
Minimum Humidity 26    
Precipitation  
Precipitation 0.00 in - - ()
Sea Level Pressure  
Sea Level Pressure 30.17 in    
Wind  
Wind Speed 6 mph (SW)    
Max Wind Speed 18 mph    
Max Gust Speed 25 mph    
Visibility 10 miles    
Events      
Averages and records for this station are not official NWS values.
T = Trace of Precipitation, MM = Missing Value Source: NWS Daily Summary

Daily Weather History Graph

Daily Weather History Graph

Search for Another Location

Airport:

Trip Planner

Search our weather history database for the weather conditions in past years. The results will help you decide how hot, cold, wet, or windy it might be!

Date:

Astronomy

Oct. 07, 2012 Rise Set
Actual Time 7:29 AM CDT 6:57 PM CDT
Civil Twilight 7:02 AM CDT 7:24 PM CDT
Nautical Twilight 6:30 AM CDT 7:56 PM CDT
Astronomical Twilight 5:58 AM CDT 8:28 PM CDT
Moon No Moon Rise 2:10 PM CDT (10/7)
Length of Visible Light 12h 22m
Length of Day
11h 27m
Waning Gibbous, 56% of the Moon is Illuminated
Oct 7
Waning Gibbous
Oct 8
Last Quarter
Oct 15
New
Oct 21
First Quarter
Oct 29
Full

Hourly Weather History & Observations

Time (CDT) Temp. Windchill Dew Point Humidity Pressure Visibility Wind Dir Wind Speed Gust Speed Precip Events Conditions
12:15 AM 31.8 °F 27.3 °F 24.6 °F 75% 30.31 in 10.0 mi WSW 4.6 mph - N/A   Clear
12:35 AM 33.1 °F 27.7 °F 25.7 °F 74% 30.31 in 10.0 mi WSW 5.8 mph - N/A   Clear
12:55 AM 30.6 °F 25.8 °F 24.1 °F 77% 30.31 in 10.0 mi WSW 4.6 mph - N/A   Clear
1:15 AM 31.5 °F 25.8 °F 24.8 °F 76% 30.31 in 10.0 mi WSW 5.8 mph - N/A   Clear
1:35 AM 32.0 °F 27.5 °F 24.8 °F 75% 30.30 in 10.0 mi WSW 4.6 mph - N/A   Clear
1:55 AM 30.2 °F 24.3 °F 23.9 °F 77% 30.30 in 10.0 mi WSW 5.8 mph - N/A   Clear
2:15 AM 30.0 °F 24.1 °F 24.4 °F 80% 30.30 in 10.0 mi West 5.8 mph - N/A   Clear
2:35 AM 29.1 °F - 23.2 °F 78% 30.30 in 10.0 mi Calm Calm - N/A   Clear
2:55 AM 28.4 °F 21.2 °F 23.5 °F 82% 30.29 in 10.0 mi West 6.9 mph - N/A   Clear
3:15 AM 31.1 °F 26.4 °F 24.8 °F 77% 30.28 in 10.0 mi West 4.6 mph - N/A   Clear
3:35 AM 31.3 °F - 24.8 °F 77% 30.28 in 10.0 mi Calm Calm - N/A   Clear
3:55 AM 29.7 °F - 23.0 °F 76% 30.27 in 10.0 mi Calm Calm - N/A   Clear
4:15 AM 30.2 °F - 23.0 °F 75% 30.27 in 10.0 mi Calm Calm - N/A   Clear
4:35 AM 28.9 °F 25.2 °F 23.4 °F 80% 30.27 in 10.0 mi West 3.5 mph - N/A   Clear
4:55 AM 22.6 °F - 18.5 °F 84% 30.26 in 10.0 mi Calm Calm - N/A   Clear
5:15 AM 24.8 °F - 21.0 °F 86% 30.27 in 10.0 mi Calm Calm - N/A   Clear
5:35 AM 24.6 °F - 20.3 °F 84% 30.26 in 10.0 mi Calm Calm - N/A   Clear
5:55 AM 22.8 °F - 19.2 °F 86% 30.26 in 10.0 mi Calm Calm - N/A   Clear
6:15 AM 22.1 °F - 18.7 °F 87% 30.25 in 10.0 mi Calm Calm - N/A   Clear
6:35 AM 20.7 °F 15.8 °F 17.2 °F 87% 30.25 in 10.0 mi ESE 3.5 mph - N/A   Clear
6:55 AM 21.2 °F - 18.0 °F 87% 30.26 in 10.0 mi Calm Calm - N/A   Clear
7:15 AM 21.4 °F - 18.0 °F 87% 30.26 in 10.0 mi Calm Calm - N/A   Clear
7:35 AM 22.3 °F - 20.5 °F 93% 30.26 in 10.0 mi Calm Calm - N/A   Clear
7:55 AM 20.7 °F - 17.6 °F 88% 30.27 in 10.0 mi Calm Calm - N/A   Clear
8:15 AM 24.1 °F - 20.7 °F 87% 30.27 in 10.0 mi Calm Calm - N/A   Clear
8:35 AM 26.6 °F - 23.0 °F 86% 30.27 in 10.0 mi Calm Calm - N/A   Clear
8:55 AM 31.1 °F 27.7 °F 25.0 °F 78% 30.27 in 10.0 mi SSW 3.5 mph - N/A   Clear
9:15 AM 33.8 °F 30.8 °F 26.6 °F 75% 30.27 in 10.0 mi SW 3.5 mph - N/A   Clear
9:35 AM 36.1 °F 33.5 °F 27.5 °F 71% 30.27 in 10.0 mi West 3.5 mph - N/A   Clear
9:55 AM 38.3 °F - 28.6 °F 68% 30.26 in 10.0 mi Calm Calm - N/A   Clear
10:15 AM 42.3 °F 37.3 °F 30.4 °F 63% 30.25 in 10.0 mi West 8.1 mph - N/A   Clear
10:35 AM 43.9 °F 41.3 °F 30.6 °F 59% 30.25 in 10.0 mi WSW 4.6 mph - N/A   Clear
10:55 AM 45.7 °F 42.7 °F 30.7 °F 56% 30.24 in 10.0 mi SW 5.8 mph - N/A   Clear
11:15 AM 48.9 °F - 30.0 °F 48% 30.23 in 10.0 mi West 8.1 mph - N/A   Clear
11:35 AM 50.7 °F - 28.4 °F 42% 30.22 in 10.0 mi WSW 10.4 mph - N/A   Clear
11:55 AM 51.8 °F - 27.5 °F 39% 30.21 in 10.0 mi West 11.5 mph 18.4 mph N/A   Clear
12:15 PM 52.7 °F - 27.0 °F 37% 30.20 in 10.0 mi SW 11.5 mph 17.3 mph N/A   Clear
12:35 PM 53.1 °F - 25.0 °F 34% 30.19 in 10.0 mi West 12.7 mph 18.4 mph N/A   Clear
12:55 PM 53.4 °F - 24.8 °F 33% 30.17 in 10.0 mi SW 11.5 mph 23.0 mph N/A   Clear
1:15 PM 54.9 °F - 23.9 °F 30% 30.17 in 10.0 mi WSW 12.7 mph 20.7 mph N/A   Clear
1:35 PM 55.2 °F - 23.5 °F 29% 30.15 in 10.0 mi WSW 15.0 mph 24.2 mph N/A   Clear
1:55 PM 55.6 °F - 23.4 °F 29% 30.14 in 10.0 mi WSW 16.1 mph 25.3 mph N/A   Clear
2:15 PM 56.1 °F - 22.6 °F 27% 30.13 in 10.0 mi SW 16.1 mph 23.0 mph N/A   Clear
2:35 PM 56.5 °F - 23.2 °F 28% 30.12 in 10.0 mi SW 12.7 mph 21.9 mph N/A   Clear
2:55 PM 56.5 °F - 23.0 °F 27% 30.10 in 10.0 mi SW 12.7 mph 21.9 mph N/A   Clear
3:15 PM 57.4 °F - 22.5 °F 26% 30.09 in 10.0 mi SW 12.7 mph 19.6 mph N/A   Clear
3:35 PM 56.8 °F - 22.8 °F 27% 30.09 in 10.0 mi WSW 15.0 mph 24.2 mph N/A   Clear
3:55 PM 56.8 °F - 23.5 °F 28% 30.08 in 10.0 mi SW 12.7 mph 18.4 mph N/A   Clear
4:15 PM 56.7 °F - 23.5 °F 28% 30.07 in 10.0 mi SW 12.7 mph 23.0 mph N/A   Clear
4:35 PM 56.5 °F - 23.2 °F 28% 30.07 in 10.0 mi SW 13.8 mph 21.9 mph N/A   Clear
4:55 PM 56.7 °F - 24.3 °F 29% 30.06 in 10.0 mi WSW 15.0 mph 20.7 mph N/A   Clear
5:15 PM 56.1 °F - 23.9 °F 29% 30.06 in 10.0 mi SW 18.4 mph 23.0 mph N/A   Clear
5:35 PM 55.9 °F - 25.3 °F 31% 30.05 in 10.0 mi SW 17.3 mph 21.9 mph N/A   Clear
5:55 PM 55.0 °F - 24.6 °F 31% 30.05 in 10.0 mi SW 13.8 mph 19.6 mph N/A   Clear
6:15 PM 54.5 °F - 24.1 °F 31% 30.04 in 10.0 mi SW 10.4 mph 19.6 mph N/A   Clear
6:35 PM 53.6 °F - 23.9 °F 32% 30.04 in 10.0 mi SW 13.8 mph 20.7 mph N/A   Clear
6:55 PM 51.4 °F - 24.3 °F 35% 30.04 in 10.0 mi SSW 8.1 mph - N/A   Clear
7:15 PM 50.0 °F - 24.8 °F 37% 30.04 in 10.0 mi SSW 6.9 mph - N/A   Clear
7:55 PM 45.5 °F 42.5 °F 25.7 °F 46% 30.04 in 10.0 mi South 5.8 mph - N/A   Clear
8:15 PM 44.4 °F 40.5 °F 25.5 °F 48% 30.04 in 10.0 mi South 6.9 mph - N/A   Clear
8:35 PM 40.6 °F 34.8 °F 24.8 °F 53% 30.04 in 10.0 mi South 9.2 mph - N/A   Clear
8:55 PM 39.9 °F 34.5 °F 25.3 °F 56% 30.04 in 10.0 mi South 8.1 mph - N/A   Clear
9:15 PM 41.9 °F 36.3 °F 26.2 °F 54% 30.03 in 10.0 mi South 9.2 mph - N/A   Clear
9:35 PM 43.3 °F 38.1 °F 26.4 °F 51% 30.03 in 10.0 mi South 9.2 mph - N/A   Clear
9:55 PM 43.7 °F 38.1 °F 26.6 °F 51% 30.03 in 10.0 mi SSW 10.4 mph - N/A   Clear
10:15 PM 45.0 °F 39.7 °F 27.5 °F 50% 30.02 in 10.0 mi SSW 10.4 mph - N/A   Clear
10:35 PM 44.6 °F 38.4 °F 28.0 °F 52% 30.02 in 10.0 mi SSW 12.7 mph - N/A   Clear
10:55 PM 44.2 °F 38.4 °F 28.4 °F 54% 30.02 in 10.0 mi SSW 11.5 mph - N/A   Clear
11:15 PM 43.9 °F 37.9 °F 28.8 °F 55% 30.01 in 10.0 mi SSW 11.5 mph - N/A   Clear
11:35 PM 44.6 °F 38.4 °F 29.3 °F 55% 30.01 in 10.0 mi SW 12.7 mph - N/A   Clear
11:55 PM 43.9 °F 37.5 °F 30.0 °F 58% 30.01 in 10.0 mi SW 12.7 mph 17.3 mph N/A   Clear